sat.trackr.live / text

‹ back to catalog

STARLINK-32685

NORAD 62500 · 2025-003P

PAYLOAD ACTIVE UNKNOWN

§ Identity

Operator
Country
US
Launch date
2025-01-06
Launch site
AFETR
Launch vehicle
Mass (kg)
RCS (m²)

Purposes: comms

External: N2YO · Heavens-Above · Gunter

§ Orbital elements

Epoch: 2026-05-25T05:23:16.026720Z

Period
94.27 min
Inclination
43.0007°
Eccentricity
0.0000952
Mean motion
15.27591953 rev/d
Perigee alt
482.4 km
Apogee alt
483.7 km
Semi-major
6,861.2 km
B*
4.0382e-4
RAAN
216.9968°
Arg perigee
261.5757°
Mean anomaly
98.4986°
Rev number
7,832

§ Raw data

STARLINK-326851 62500U 25003P   26145.22449105  .00010871  00000+0  40382-3 0  99942 62500  43.0007 216.9968 0000952 261.5757  98.4986 15.27591953 78320

JSON: /api/v1/satellites/62500 · /tle

For live sub-satellite position, see the globe view (requires WebGL).

§ Visibility from observer

Set your observer location to see the next 7 days of passes ≥ 10°. The values pass through the URL so the page stays shareable.

No JS? Fill the form by hand. The geolocation button needs JavaScript.